This is the latest recevied weather packets stored in our database for station/object KG7BDA. If no packets are shown the sender has not sent any weather packets the latest 10 day(s).
| Time | Temp. | Humidity | Pressure | Rain* | Wind** | Luminosity | Snow |
|---|---|---|---|---|---|---|---|
| 1778010681 | 21.11° C | 36% | 1011 hPa | 0 mm | - | - | - |
| 1778010321 | 20.56° C | 36% | 1011.2 hPa | 0 mm | - | - | - |
| 1778009960 | 20.56° C | 39% | 1011.1 hPa | 0 mm | - | - | - |
| 1778009447 | 20.56° C | 37% | 1011.2 hPa | 0 mm | - | - | - |
| 1778009241 | 20.56° C | 37% | 1011.2 hPa | 0 mm | - | - | - |
| 1778008881 | 20° C | 37% | 1011.2 hPa | 0 mm | - | - | - |
| 1778008521 | 20° C | 37% | 1011.3 hPa | 0 mm | - | - | - |
| 1778008160 | 20° C | 37% | 1011.3 hPa | 0 mm | - | - | - |
| 1778007800 | 19.44° C | 37% | 1011.4 hPa | 0 mm | - | - | - |
| 1778007441 | 19.44° C | 38% | 1011.3 hPa | 0 mm | - | - | - |
| 1778007081 | 19.44° C | 37% | 1011.5 hPa | 0 mm | - | - | - |
| 1778006720 | 19.44° C | 37% | 1011.5 hPa | 0 mm | - | - | - |
| 1778006361 | 19.44° C | 38% | 1011.6 hPa | 0 mm | - | - | - |
| 1778006001 | 19.44° C | 36% | 1011.7 hPa | 0 mm | - | - | - |
| 1778005641 | 18.89° C | 37% | 1011.8 hPa | 0 mm | - | - | - |
| 1778005280 | 19.44° C | 39% | 1011.7 hPa | 0 mm | - | - | - |
| 1778004920 | 18.89° C | 38% | 1011.7 hPa | 0 mm | - | - | - |
| 1778004561 | 18.89° C | 38% | 1011.8 hPa | 0 mm | - | - | - |
| 1778004200 | 18.89° C | 38% | 1011.6 hPa | 0 mm | - | - | - |
| 1778003840 | 18.89° C | 38% | 1011.6 hPa | 0 mm | - | - | - |
| 1778003481 | 18.89° C | 38% | 1011.7 hPa | 0 mm | - | - | - |
| 1778003121 | 18.33° C | 40% | 1011.8 hPa | 0 mm | - | - | - |
| 1778002760 | 18.33° C | 38% | 1011.8 hPa | 0 mm | - | - | - |
| 1778002400 | 17.78° C | 37% | 1011.7 hPa | 0 mm | - | - | - |
| 1778002041 | 18.33° C | 40% | 1011.7 hPa | 0 mm | - | - | - |
* Rain latest hour (hover to see other rain measurements)
** Current wind speed in m/s (hover to see current wind gust speed)